User: anonymous   Login
Location: Unspecified
(0.0000°N, 0.0000°E)
Time: 00:50:48
(UTC+00:00)
Language:

STARLINK-4784 - Orbit

View from above orbital plane
View from above orbital plane
View from above satellite
View from above satellite

Ground track
Ground track

The orbit is defined by the following mean orbital elements,

1 53839U          26145.43222199 +.00000000 +00000-0 +44949-4 0 00005
2 53839  53.2124 309.8570 0001341  83.3606 276.7539 15.08835901    03
Epoch (UTC): 25 May 2026 10:22:23
Eccentricity: 0.0001341
inclination: 53.2124°
perigee height: 539 km
apogee height: 541 km
right ascension of ascending node: 309.8570°
argument of perigee: 83.3606°
revolutions per day: 15.08835901
mean anomaly at epoch: 276.7539°

The dashed part of the orbit path shows where the satellite is in the earth's shadow,  

DLR